When you browse on this site, cookies collect data to enhance your experience and personalize the content and advertising you see.
Visit our Privacy Policy to learn more. By continuing to use the site, you agree to this use of cookies and data.
  • In Hungary
  • List of Countries
  • For 7 days
  • Water Temperature
  • Satellite Maps
  • Weather Map
  • News
  • Weather Widgets
  • user-avatar
    Login

    Hourly Weather Kalat

    Today, 13 December, Thursday

    Time Temperature Precipitation Wind Pressure Humidity
    00:00 -23°C° 0 mm 3 mps 465 mmHg 59%
    01:00 -23°C° 0 mm 3 mps 465 mmHg 56%
    02:00 -23°C° 0 mm 3 mps 465 mmHg 53%
    03:00 -24°C° 0 mm 3 mps 465 mmHg 50%
    04:00 -24°C° 0 mm 3 mps 465 mmHg 47%
    05:00 -23°C° 0 mm 3 mps 465 mmHg 37%
    06:00 -23°C° 0 mm 3 mps 465 mmHg 34%
    07:00 -23°C° 0 mm 3 mps 465 mmHg 32%
    08:00 -23°C° 0 mm 3 mps 465 mmHg 29%
    09:00 -19°C° 0 mm 2 mps 467 mmHg 33%
    10:00 -16°C° 0 mm 2 mps 469 mmHg 37%
    11:00 -11°C° 0 mm 1 mps 471 mmHg 41%
    12:00 -10°C° 0 mm 1 mps 471 mmHg 42%
    13:00 -10°C° 0 mm 1 mps 471 mmHg 43%
    14:00 -9°C° 0 mm 1 mps 471 mmHg 44%
    15:00 -12°C° 0 mm 1 mps 470 mmHg 47%
    16:00 -14°C° 0 mm 1 mps 468 mmHg 49%
    17:00 -18°C° 0 mm 2 mps 466 mmHg 51%
    18:00 -19°C° 0 mm 2 mps 466 mmHg 49%
    19:00 -20°C° 0 mm 2 mps 467 mmHg 46%
    20:00 -22°C° 0 mm 3 mps 467 mmHg 44%
    21:00 -22°C° 0 mm 3 mps 467 mmHg 42%
    22:00 -22°C° 0 mm 3 mps 467 mmHg 41%
    23:00 -22°C° 0 mm 3 mps 467 mmHg 39%

    Tomorrow, 14 December, Friday

    Time Temperature Precipitation Wind Pressure Humidity
    00:00 -22°C° 0 mm 3 mps 467 mmHg 39%
    01:00 -22°C° 0 mm 3 mps 467 mmHg 39%
    02:00 -22°C° 0 mm 3 mps 467 mmHg 39%
    03:00 -22°C° 0 mm 3 mps 467 mmHg 38%
    04:00 -22°C° 0 mm 3 mps 467 mmHg 37%
    05:00 -22°C° 0 mm 3 mps 467 mmHg 36%
    06:00 -21°C° 0 mm 3 mps 468 mmHg 35%
    07:00 -21°C° 0 mm 3 mps 468 mmHg 33%
    08:00 -21°C° 0 mm 3 mps 468 mmHg 32%
    09:00 -16°C° 0 mm 2 mps 470 mmHg 37%
    10:00 -13°C° 0 mm 2 mps 472 mmHg 42%
    11:00 -8°C° 0 mm 1 mps 474 mmHg 46%
    12:00 -8°C° 0 mm 1 mps 474 mmHg 47%
    13:00 -7°C° 0 mm 1 mps 474 mmHg 48%
    14:00 -6°C° 0 mm 1 mps 474 mmHg 48%
    15:00 -9°C° 0 mm 1 mps 472 mmHg 48%
    16:00 -12°C° 0 mm 1 mps 471 mmHg 47%
    17:00 -16°C° 0 mm 2 mps 469 mmHg 47%
    18:00 -17°C° 0 mm 2 mps 469 mmHg 43%
    19:00 -17°C° 0 mm 2 mps 469 mmHg 38%
    20:00 -18°C° 0 mm 2 mps 469 mmHg 34%
    21:00 -19°C° 0 mm 3 mps 469 mmHg 32%
    22:00 -19°C° 0 mm 3 mps 469 mmHg 30%
    23:00 -19°C° 0 mm 3 mps 469 mmHg 28%

    Day after tomorrow, 15 December, Saturday

    Time Temperature Precipitation Wind Pressure Humidity
    00:00 -19°C° 0 mm 3 mps 469 mmHg 27%
    01:00 -19°C° 0 mm 3 mps 469 mmHg 27%
    02:00 -19°C° 0 mm 3 mps 469 mmHg 27%
    03:00 -19°C° 0 mm 3 mps 469 mmHg 26%
    04:00 -19°C° 0 mm 3 mps 468 mmHg 26%
    05:00 -19°C° 0 mm 3 mps 468 mmHg 25%
    06:00 -19°C° 0 mm 3 mps 469 mmHg 25%
    07:00 -19°C° 0 mm 3 mps 469 mmHg 24%
    08:00 -18°C° 0 mm 3 mps 469 mmHg 24%
    09:00 -16°C° 0 mm 3 mps 471 mmHg 31%
    10:00 -12°C° 0 mm 2 mps 473 mmHg 38%
    11:00 -7°C° 0 mm 1 mps 475 mmHg 45%
    12:00 -6°C° 0 mm 1 mps 475 mmHg 47%
    13:00 -6°C° 0 mm 1 mps 475 mmHg 49%
    14:00 -4°C° 0 mm 1 mps 475 mmHg 51%
    15:00 -8°C° 0 mm 1 mps 473 mmHg 50%
    16:00 -12°C° 0 mm 2 mps 471 mmHg 49%
    17:00 -14°C° 0 mm 2 mps 470 mmHg 48%
    18:00 -15°C° 0 mm 2 mps 470 mmHg 45%
    19:00 -17°C° 0 mm 3 mps 470 mmHg 42%
    20:00 -17°C° 0 mm 3 mps 470 mmHg 39%
    21:00 -17°C° 0 mm 3 mps 470 mmHg 37%
    22:00 -17°C° 0 mm 3 mps 470 mmHg 34%
    23:00 -17°C° 0 mm 3 mps 470 mmHg 31%

    16 December, Sunday

    Time Temperature Precipitation Wind Pressure Humidity
    00:00 -18°C° 0 mm 3 mps 470 mmHg 30%
    01:00 -18°C° 0 mm 3 mps 470 mmHg 29%
    02:00 -18°C° 0 mm 3 mps 470 mmHg 27%
    03:00 -18°C° 0 mm 3 mps 470 mmHg 27%
    04:00 -18°C° 0 mm 3 mps 470 mmHg 26%
    05:00 -18°C° 0 mm 3 mps 470 mmHg 26%
    06:00 -18°C° 0 mm 3 mps 470 mmHg 26%
    07:00 -17°C° 0 mm 3 mps 470 mmHg 26%
    08:00 -17°C° 0 mm 3 mps 471 mmHg 26%
    09:00 -14°C° 0 mm 2 mps 473 mmHg 33%
    10:00 -10°C° 0 mm 2 mps 474 mmHg 41%
    11:00 -7°C° 0 mm 2 mps 476 mmHg 48%
    12:00 -7°C° 0 mm 2 mps 476 mmHg 50%
    13:00 -7°C° 0 mm 2 mps 476 mmHg 52%
    14:00 -6°C° 0 mm 2 mps 476 mmHg 55%
    15:00 -9°C° 0 mm 2 mps 474 mmHg 54%
    16:00 -12°C° 0 mm 2 mps 472 mmHg 53%
    17:00 -14°C° 0 mm 2 mps 471 mmHg 52%
    18:00 -16°C° 0 mm 3 mps 470 mmHg 48%
    19:00 -16°C° 0 mm 3 mps 470 mmHg 45%
    20:00 -17°C° 0 mm 3 mps 470 mmHg 41%
    21:00 -17°C° 0 mm 3 mps 470 mmHg 39%
    22:00 -17°C° 0 mm 3 mps 470 mmHg 37%
    23:00 -17°C° 0 mm 3 mps 470 mmHg 36%

    17 December, Monday

    Time Temperature Precipitation Wind Pressure Humidity
    00:00 -17°C° 0 mm 3 mps 470 mmHg 35%
    01:00 -17°C° 0 mm 3 mps 470 mmHg 35%
    02:00 -17°C° 0 mm 3 mps 470 mmHg 34%
    03:00 -18°C° 0 mm 3 mps 469 mmHg 33%
    04:00 -18°C° 0 mm 3 mps 469 mmHg 32%
    05:00 -18°C° 0 mm 3 mps 469 mmHg 32%
    06:00 -18°C° 0 mm 3 mps 469 mmHg 32%
    07:00 -18°C° 0 mm 3 mps 469 mmHg 32%
    08:00 -18°C° 0 mm 3 mps 470 mmHg 32%
    09:00 -14°C° 0 mm 2 mps 471 mmHg 37%
    10:00 -12°C° 0 mm 2 mps 473 mmHg 42%
    11:00 -8°C° 0 mm 1 mps 475 mmHg 46%
    12:00 -7°C° 0 mm 1 mps 474 mmHg 48%
    13:00 -8°C° 0 mm 2 mps 474 mmHg 51%
    14:00 -7°C° 0 mm 2 mps 474 mmHg 53%
    15:00 -9°C° 0 mm 2 mps 473 mmHg 52%
    16:00 -13°C° 0 mm 2 mps 471 mmHg 52%
    17:00 -15°C° 0 mm 2 mps 469 mmHg 52%
    18:00 -15°C° 0 mm 2 mps 469 mmHg 49%
    19:00 -17°C° 0 mm 3 mps 469 mmHg 46%
    20:00 -17°C° 0 mm 3 mps 469 mmHg 42%
    21:00 -18°C° 0 mm 3 mps 469 mmHg 40%
    22:00 -18°C° 0 mm 3 mps 469 mmHg 38%
    23:00 -18°C° 0 mm 3 mps 469 mmHg 36%

    18 December, Tuesday

    Time Temperature Precipitation Wind Pressure Humidity
    00:00 -18°C° 0 mm 3 mps 469 mmHg 35%
    01:00 -18°C° 0 mm 3 mps 469 mmHg 34%
    02:00 -18°C° 0 mm 3 mps 469 mmHg 33%
    03:00 -18°C° 0 mm 3 mps 469 mmHg 32%
    04:00 -18°C° 0 mm 3 mps 469 mmHg 32%
    05:00 -17°C° 0 mm 3 mps 469 mmHg 32%
    06:00 -17°C° 0 mm 3 mps 469 mmHg 31%
    07:00 -17°C° 0 mm 3 mps 469 mmHg 31%
    08:00 -16°C° 0 mm 3 mps 469 mmHg 31%
    09:00 -13°C° 0 mm 3 mps 471 mmHg 38%
    10:00 -9°C° 0 mm 2 mps 473 mmHg 45%
    11:00 -6°C° 0 mm 2 mps 475 mmHg 52%
    12:00 -5°C° 0 mm 2 mps 475 mmHg 53%
    13:00 -5°C° 0 mm 2 mps 475 mmHg 55%
    14:00 -4°C° 0 mm 2 mps 474 mmHg 57%
    15:00 -6°C° 0 mm 2 mps 473 mmHg 55%
    16:00 -8°C° 0 mm 2 mps 471 mmHg 53%
    17:00 -12°C° 0 mm 3 mps 470 mmHg 52%
    18:00 -13°C° 0 mm 3 mps 469 mmHg 48%
    19:00 -15°C° 0 mm 4 mps 468 mmHg 44%
    20:00 -16°C° 0 mm 4 mps 468 mmHg 41%
    21:00 -16°C° 0 mm 4 mps 468 mmHg 40%
    22:00 -16°C° 0 mm 4 mps 468 mmHg 40%
    23:00 -17°C° 0 mm 4 mps 467 mmHg 40%
    Show more